{"data":{"norad_id":56038,"intl_designator":"2023-042BE","name":"STARLINK-5793","alt_names":[],"object_type":"PAYLOAD","status":"ACTIVE","operator":null,"country":"US","launch_date":"2023-03-24","launch_site_code":"AFETR","launch_vehicle":null,"mission":null,"orbit_class":"UNKNOWN","rcs_meters":null,"size_class":null,"mass_kg":null,"dimensions":null,"purposes":["comms"],"wikipedia_slug":null,"has_3d_model":false,"image_url":null,"decayed_at":null,"tle_current":{"epoch":"2026-05-24T22:40:13.044288Z","epoch_age_seconds":79565,"freshness":"FRESH","line1":"1 56038U 23042BE  26144.94459542  .00000230  00000+0  17878-4 0  9991","line2":"2 56038  43.0021 334.9119 0001040 263.9870  96.0863 15.27578298174697","mean_motion":15.27578298,"eccentricity":0.000104,"inclination_deg":43.0021,"raan_deg":334.9119,"arg_perigee_deg":263.987,"mean_anomaly_deg":96.0863,"bstar":1.7878e-5,"rev_number":17469,"period_min":94.266853743951,"perigee_km":482.34062856066,"apogee_km":483.76775632869,"semimajor_km":6861.1911924447,"source":"CELESTRAK","updated_at":"2026-05-25T13:38:17.952193Z"}}}